Location: Poughquag
(41.6090°N, 73.6820°W)
Time: 03:20:10
(UTC-04:00)

Vanguard 2 Rocket - Pass Details

Date: 06 June 2020
Orbit: 556 x 3324 km, 32.9° (Epoch: 06 July)

Event Time Altitude Azimuth Distance (km) Brightness Sun altitude
Rises 16:21:29 0° 259° (W) 3,539 10.7 43.0°
Reaches altitude 10° 16:23:40 10° 253° (WSW) 2,832 10.5 42.6°
Maximum altitude 16:30:21 48° 180° (S) 1,850 9.0 41.3°
Drops below altitude 10° 16:42:00 10° 112° (ESE) 4,831 10.3 39.2°
Sets 16:46:56 0° 108° (ESE) 6,277 10.7 38.2°
